This is the latest recevied weather packets stored in our database for station/object N9ALD. If no packets are shown the sender has not sent any weather packets the latest 1 day(s).
| Time | Temp. | Humidity | Pressure | Rain* | Wind** | Luminosity | Snow |
|---|---|---|---|---|---|---|---|
| 1778045115 | 7.78° C | 97% | 1006.7 hPa | 0 mm | - | 0 W/m² | - |
| 1778044509 | 7.78° C | 98% | 1006.6 hPa | 0 mm | - | 0 W/m² | - |
| 1778044206 | 7.78° C | 98% | 1006.3 hPa | 0 mm | - | 0 W/m² | - |
| 1778043602 | 8.33° C | 98% | 1006.6 hPa | 1.78 mm | - | 0 W/m² | - |
| 1778043297 | 8.33° C | 98% | 1006.9 hPa | 3.05 mm | - | 0 W/m² | - |
| 1778042994 | 8.33° C | 98% | 1007 hPa | 6.1 mm | - | 0 W/m² | - |
| 1778042692 | 8.33° C | 98% | 1006.9 hPa | 4.32 mm | - | 0 W/m² | - |
| 1778041483 | 8.33° C | 99% | 1006.7 hPa | 1.27 mm | - | 0 W/m² | - |
| 1778041180 | 8.33° C | 99% | 1005.9 hPa | 3.05 mm | - | 0 W/m² | - |
| 1778040878 | 8.33° C | 99% | 1005.9 hPa | 3.56 mm | - | 0 W/m² | - |
| 1778040575 | 8.33° C | 99% | 1006.1 hPa | 3.05 mm | - | 0 W/m² | - |
| 1778040273 | 8.33° C | 98% | 1006.1 hPa | 4.32 mm | - | 0 W/m² | - |
| 1778039060 | 8.33° C | 98% | 1006.1 hPa | 0 mm | - | 0 W/m² | - |
| 1778038757 | 8.33° C | 98% | 1006 hPa | 0 mm | - | 0 W/m² | - |
| 1778038454 | 8.33° C | 98% | 1005.9 hPa | 0 mm | - | 0 W/m² | - |
| 1778038151 | 8.33° C | 98% | 1005.7 hPa | 1.27 mm | - | 0 W/m² | - |
| 1778037848 | 8.33° C | 98% | 1005.6 hPa | 3.05 mm | - | 0 W/m² | - |
| 1778037242 | 8.33° C | 98% | 1006.3 hPa | 4.32 mm | - | 0 W/m² | - |
| 1778036939 | 8.33° C | 98% | 1006.7 hPa | 9.65 mm | - | 0 W/m² | - |
| 1778036637 | 8.33° C | 98% | 1006.6 hPa | 11.94 mm | - | 0 W/m² | - |
| 1778036334 | 8.33° C | 98% | 1006.4 hPa | 10.67 mm | - | 0 W/m² | - |
| 1778036030 | 8.33° C | 98% | 1006.9 hPa | 6.1 mm | - | 0 W/m² | - |
| 1778035120 | 8.33° C | 98% | 1005.6 hPa | 0 mm | - | 0 W/m² | - |
| 1778034817 | 8.33° C | 98% | 1005.6 hPa | 0 mm | - | 0 W/m² | - |
| 1778034514 | 8.33° C | 98% | 1005.5 hPa | 0 mm | - | 0 W/m² | - |
* Rain latest hour (hover to see other rain measurements)
** Current wind speed in m/s (hover to see current wind gust speed)